Regional Weather Roundup
Issued by NWS Grand Forks, ND

Home | Current Version | Previous Version | Text Only | Print | Product List | Glossary On
Versions: 1 2 3 4 5 6 7 8 9 10 11 12 13 14 15 16 17 18 19 20 21 22 23 24 25 26 27 28 29 30 31 32 33 34 35 36 37 38 39 40 41 42 43 44 45 46 47 48 49 50
000
ASUS43 KFGF 302331
RWRFGF
PRAIRIE TO PINES  WEATHER ROUNDUP
NATIONAL WEATHER SERVICE EASTERN NORTH DAKOTA/GRAND FORKS ND
600 PM CDT WED JUL 30 2014

 **SATELLITE DATA USED TO AUGMENT SKY COVER AT AUTOMATED STATIONS**
 *****  WEATHER ACROSS EASTERN NORTH DAKOTA  *****

CITY           SKY/WX    TMP DP  RH WIND       PRES   REMARKS
GRAND FORKS    MOSUNNY   81  58  45 N6        30.04F
GRAND FRKS AFB SUNNY     80  58  46 N8        30.06F
GRAND FRKS NWS   N/A     79 N/A N/A N12         N/A
DEVILS LAKE    MOSUNNY   79  55  44 N9        30.07F
FARGO          MOSUNNY   81  54  39 NW10      30.06F
WAHPETON ARPT  PTCLDY    79  45  29 NW6       30.06F
$$

 ***** WEATHER ACROSS CENTRAL AND WESTERN NORTH DAKOTA  *****

CITY           SKY/WX    TMP DP  RH WIND       PRES   REMARKS
BISMARCK       CLOUDY    81  55  40 E6        30.10F
MINOT          MOSUNNY   79  58  48 N9        30.11F
JAMESTOWN      SUNNY     78  51  38 NW7       30.10F
MINOT AFB      SUNNY     77  55  45 N9        30.10F
GARRISON         N/A     78  58  49 NE5       30.12F
WILLISTON      SUNNY     84  45  25 N6        30.12F
DICKINSON      SUNNY     83  50  31 N8        30.13F
HETTINGER      MOSUNNY   82  51  34 NE6       30.16F
$$

 *****  OTHER AIRPORT OBSERVATIONS IN OUR AREA  *****

CITY           SKY/WX    TMP DP  RH WIND       PRES   REMARKS
WALHALLA       FAIR      81  57  44 N5          N/A
GRAFTON AIRPOR FAIR      79  54  41 N8        30.05F
VALLEY CITY AR FAIR      79  52  38 NW7       30.09F
CANDO          FAIR      77  54  44 N8        30.10S
CAVALIER APRT  FAIR      79  55  44 NW5       30.05F
GWINNER        CLEAR     81  54  39 N3        30.10S
SHEYENNE NWR     N/A     81  49  33 NW7       29.95S
ROLLA            N/A     75  54  46 NW5       30.12S
 ***** THE ABOVE OBSERVATIONS ARE NON NWS ARE NOT QUALITY
       CONTROLLED AND MAY MIS-REPORT RAIN FOR SNOW...
$$

  *****  WEATHER ACROSS NORTHERN MINNESOTA  *****

CITY           SKY/WX    TMP DP  RH WIND       PRES   REMARKS
FLAG ISLAND    SUNNY     77  59  53 NW8       29.99F
WARROAD        SUNNY     79  61  53 W8        30.02F
ROSEAU         SUNNY     79  61  53 W8        30.03S
HALLOCK        SUNNY     79  55  44 NW7       30.04F
THF RVR FALLS  SUNNY     75  55  50 NW10      30.06S
BAUDETTE       SUNNY     77  57  50 NW8       30.02F
WASKISH        MOSUNNY   75  61  60 W5        30.02F
CROOKSTON      SUNNY     79  57  47 N6        30.05F
$$
  *****  WEATHER ACROSS CENTRAL AND WEST MINNESOTA  *****

CITY           SKY/WX    TMP DP  RH WIND       PRES   REMARKS
FOSSTON        SUNNY     75  54  46 NW6       30.07F
BEMIDJI        SUNNY     74  55  50 NW13      30.05F
PARK RAPIDS    SUNNY     77  52  41 NW15      30.06F
ELBOW LAKE     FAIR      75  55  49 NW7       30.07F
WADENA         SUNNY     73  54  49 W8        30.07S
DETROIT LAKES  SUNNY     75  52  43 N8        30.09F
MOORHEAD       SUNNY     79  55  44 N6        30.06F
FERGUS FALLS   MOSUNNY   77  50  38 NW7       30.06F
MORRIS MN      SUNNY     79  55  44 NW6       30.07F
STAPLES        SUNNY     75  50  41 NW12      30.06S
$$
  *****  WEATHER ELSEWHERE ACROSS MINNESOTA  *****

CITY           SKY/WX    TMP DP  RH WIND       PRES   REMARKS
DULUTH         MOSUNNY   77  57  50 NW14      29.98S
INTRNTL FALLS  PTSUNNY   76  55  48 NW13G21   29.99S
ELY            SUNNY     72  61  68 NW6       29.97F
CLOQUET        MOSUNNY   75  55  50 W10       30.00S
WHEATON        MOSUNNY   75  55  50 W6        30.09F
BRAINERD       SUNNY     76  55  48 NW9       30.05S
HIBBING        PTSUNNY   77  54  44 NW14G22   30.00S
ALEXANDRIA     MOSUNNY   77  54  44 NW14      30.10S
SAINT CLOUD    MOSUNNY   80  53  39 NW9       30.04F
MINNEAPOLIS    MOSUNNY   80  52  37 NW13      30.03F
$$

  *****  WEATHER ACROSS SOUTH DAKOTA  *****

CITY           SKY/WX    TMP DP  RH WIND       PRES   REMARKS
SIOUX FALLS    MOSUNNY   79  53  40 CALM      30.11F
BROOKINGS      NOT AVBL
WATERTOWN      SUNNY     77  53  43 NW8       30.11F
HURON          SUNNY     82  52  35 VRB5      30.09F
SISSETON         N/A     79  55  43 N10       30.08F
ABERDEEN       SUNNY     79  54  41 NE13      30.09F
MITCHELL       SUNNY     82  54  37 CALM      30.10F
PIERRE         MOSUNNY   86  52  30 E5        30.05F
MOBRIDGE       SUNNY     83  56  39 NE7       30.07F
RAPID CITY     MOSUNNY   84  48  28 N10       30.15F
$$

  *****  SOME WEATHER IN NEARBY STATES *****

CITY           SKY/WX    TMP DP  RH WIND       PRES   REMARKS
GLASGOW MT     SUNNY     92  43  18 SE9       30.07F
GREAT FALLS MT PTSUNNY   89  36  15 VRB3      30.08F
CHEYENNE WY    CLOUDY    61  54  77 SW8       30.37F
SCOTTSBLUFF NE PTSUNNY   77  57  50 S12       30.23F
OMAHA NE       MOSUNNY   81  52  36 VRB3      30.10S
DES MOINES IA  MOSUNNY   78  52  40 N6        30.07S
DAVENPORT IA   SUNNY     78  61  55 NW8       30.04F
CHICAGO IL     MOSUNNY   73  56  54 NE9       30.00F
EAU CLAIRE WI  SUNNY     77  58  51 W6        30.00F
LA CROSSE WI   SUNNY     79  57  46 NW6       30.02
$$

  *****  SOME NATIONAL WEATHER *****

CITY           SKY/WX    TMP DP  RH WIND       PRES   REMARKS
LA GUARDIA NY  MOSUNNY   76  53  44 S13       30.00R
RALEIGH NC     PTSUNNY   76  65  68 NW3       30.06R
ATLANTA GA     MOSUNNY   82  56  40 VRB6      30.02F
NEW ORLEANS LA MOSUNNY   86  61  42 N7        29.99F
OKLAHOMA CITY  CLOUDY    72  68  87 SE10      29.94F
ALBUQUERQUE NM PTSUNNY   88  51  28 VRB3      30.13F
SALT LAKE CITY PTSUNNY   81  56  42 E7        30.16F
LOS ANGELES CA PTSUNNY   76  62  62 W13       29.92F
BOISE ID       SUNNY     94  50  22 N6        30.05F HX  91
SEATTLE WA     MOSUNNY   83  49  30 N12       30.12F
$$

*** WEATHER ACROSS MANITOBA...SASKATCHEWAN AND ONTARIO ***
                ***ONTARIO***

CITY           SKY/WX    TMP DP  RH WIND       PRES   REMARKS
GERALDTON      NOT AVBL
THUNDER BAY    PTSUNNY   72  59  64 SW6       29.92S
SIOUX LOOKOUT  PTSUNNY   73  48  40 N8        29.98S
TORONTO        PTSUNNY   72  48  43 NW12      29.94R
BIG TROUT LK   MOSUNNY   70  45  40 N8G17     29.96S
PICKLE LAKE    PTSUNNY   72  45  37 N7        29.95S
DRYDEN         SUNNY     75  48  38 N8        29.99S
KENORA         CLOUDY    79  55  44 NW10      30.01S
$$
                *** MANITOBA***

CITY           SKY/WX    TMP DP  RH WIND       PRES   REMARKS
BRANDON        PTSUNNY   77  57  50 SE9G17    30.09S THUNDER
DAUPHIN        PTSUNNY   82  63  51 NW3       30.05F
ISLAND LAKE    PTSUNNY   75  52  43 NE3       30.04S
PILOT MOUND      N/A     79  57  47 NW3         N/A
THE PAS        MOSUNNY   84  54  34 E2        30.03F
THOMPSON       MOSUNNY   81  57  44 NE6       30.05S
WINNIPEG       MOSUNNY   81  59  47 NW12      30.03F
LYNN LAKE      SUNNY     84  46  26 E5        30.05F
CHURCHILL      SUNNY     68  50  52 E12       30.11S
GILLAM         CLOUDY    73  52  46 E8        30.07S
$$
                ***SASKATCHEWAN***

CITY           SKY/WX    TMP DP  RH WIND       PRES   REMARKS
ESTEVAN        PTSUNNY   77  55  47 NE3       30.15S
KINDERSLEY     MOSUNNY   88  59  37 S10       30.03F
LLOYDMINSTER   MOSUNNY   81  64  57 E6        30.05F
PRINCE ALBERT  PTSUNNY   81  61  50 S6        30.08F
REGINA         PTSUNNY   81  55  41 SE9       30.11F
YORKTON        SUNNY     81  50  34 W3        30.11F
N. BATTLEFORD    N/A     81  63  54 SE14      30.07F
LA RONGE       MOSUNNY   84  52  32 NE5       30.06F
SASKATOON      PTSUNNY   81  63  54 SE17      30.08F
SWIFT CURRENT  SUNNY     90  46  22 SW12      30.03F
$$
NOTE: THESE ARE AUTOMATED STATIONS WITH LIMITED QUALITY CONTROL
      "FAIR" INDICATES FEW OR NO CLOUDS BELOW 12,000 FEET WITH NO
      SIGNIFICANT WEATHER AND/OR OBSTRUCTIONS TO VISIBILITY.
      SKY/WX - SKY CONDITION AND SIGNIFICANT WEATHER.
      TMP - AIR TEMPERATURE.    DP   - DEWPOINT TEMPERATURE.
      RH  - RELATIVE HUMIDITY.  PRES - PRESSURE.
      HX  - HEAT INDEX.         WCI  - WIND CHILL INDEX.
$



USA.gov is the U.S. government's official web portal to all federal, state and local government web resources and services.